STARLINK-34101, 63812

Orbit data source: Space-Track

STARLINK-34101, 63812 is a payload satellite owned by SpaceX/Seattle (US) in LEO that was launched on Sun, 04 May 2025 UTC via an FALCON 9 launch vehicle from the Air Force Eastern Test Range (AFETR). Payload-class satellites include a variety of spacecraft equipped with specific instruments for various scientific and technological missions. These include communications satellites like Starlink; space stations such as the ISS; scientific satellites like the Hubble; Earth observation satellites from companies like Planet Labs, Umbra, and HawkEye 360; GPS; miniature CubeSats for education and research; and military/defense satellites.

Loading next visibility...
Identifier
63812, 2025-092J
Orbit
LEO
Last TLE update
15 hours ago
Origin
Manufacturer
SpaceX/Seattle
Mission
Operational spacecraft
Bus & Motor
STARLINK V2MO, Unknown motor
Mass
575 kg wet, ~530 kg dry
Launch date (UTC)
2025-05-04 (1 week ago)
Launch vehicle
FALCON 9
Launch site
Air Force Eastern Test Range (AFETR)
Object type
Payload
Rocket body
Debris
Shape & HBR
Unknown
Radar Cross Section
Medium (>0.1 m² and <1 m²)

Expand to show TLE details & history

TLE from 15 hours ago
0 STARLINK-34101
1 63812U 25092J   25132.91668981 -.00899438  00000-0 -33273-2 0  9992
2 63812  43.0007  80.1625 0001656 255.4211  54.7311 15.89199132  2399
Epoch: 2025-05-12T22:00Z
Definitive object data (Epoch: 2025-05-12T22:00:01.999Z)
Latitude
-31.59059°
Longitude
-161.74472°
Altitude
312.497 km
Speed
7.721 km/s
True Right ascension
02h 36m 44s
True Declination
-31° 25' 38"
Sunlit
Object was in daylight at TLE epoch
Visualization TLE readout
Latitude
3.2796°
Longitude
-121.21707°
Altitude
307.724 km
Speed
7.725 km/s
Apparent Right ascension
07h 08m 52s
Apparent Declination
-20° 46' 39"
Sunlit
Object is in daylight
Visualization observer readout
Local Sidereal Time
21:44:52
Azimuth
71.737° E
Elevation
-51.714°
Doppler factor
1
Orbital elements
Apogee altitude
307.631 km
Perigee altitude
305.417 km
Semi-major axis
6,684.661 km
Eccentricity
0.0001656
Inclination
43.0007°
RAAN
80.1625°
Arg. of periapsis
255.4211°
True anomaly
54.7466°
Mean anomaly
54.7311°
Eccentric anomaly
54.73885°
Mean motion
3.97122 °/min
BSTAR
-0.0033273
Orbital period
90.65 mins
Loading maneuver chart data...
Loading SW <> Apogee altitude chart data...
Loading historical data...
Loading historical data...
Loading historical data...
Loading historical data...
Loading historical data...
Loading historical data...
Loading historical data...

STARLINK-34101 Visibility forecast

Observer location: undefined°, undefined°

Span
Click to sort rows by Start time (UTC) header in descending order
Start Az.
Max El. time (UTC)
Max El. Az.
Max El.
End time (UTC)
End Az.
4 mins2025-05-14 00:06:08.321Z231.079° WSW2025-05-14 00:08:08.321Z167.217° S37.626°2025-05-14 00:10:08.321Z82.812° E
4 mins2025-05-14 03:17:08.321Z300.762° NW2025-05-14 03:19:08.321Z47.426° ENE34.03°2025-05-14 03:21:08.321Z86.935° E
|